Location: Chiroubles
(46.1812°N, 4.6660°E)
Time: 18:23:56
(UTC+00:00)

Cosmos 2322 - Pass Details

Date: 15 August 2020
Orbit: 842 x 853 km, 71.0° (Epoch: 23 September)

Event Time Altitude Azimuth Distance (km) Brightness Sun altitude
Rises 21:48:36 0° 334° (NNW) 3,412 8.3 -24.6°
Reaches altitude 10° 21:51:04 10° 335° (NNW) 2,472 7.2 -24.8°
Maximum altitude 21:56:45 81° 63° (ENE) 858 3.6 -25.3°
Enters shadow 21:57:26 69° 129° (SE) 900 3.5 -25.4°
